Terug naar catalogus

COSMOS 970 DEB

ActiefLEO
NORAD 13504·DEBRIS·🇷🇺 Russia

Gelanceerd Dec 21, 1977 vanaf Baikonur Cosmodrome

Loading…

Volgende Passages (komende 24 uur)

TLE

VersSource: Space-Track

Epoch: Sep 14, 2026, 09:20 UTC

1 13504U 77121BB  26257.38920434 -.00000035  00000-0  38522-4 0  9999
2 13504  66.1147 243.7553 0192104  81.6012 351.9990 13.77524741438354

Volg COSMOS 970 DEB in realtime met AllMySat

Download on the App Store